Tracking 18851 objects as of 25-Nov-2017
HD Live streaming from Space Station
objects crossing your sky now

ANIK A1 (TELESAT 1)

Track ANIK A1 (TELESAT 1) now!
ANIK A1 (TELESAT 1) is classified as:


NORAD ID: 6278
Int'l Code: 1972-090A
Perigee: 36,166.7 km
Apogee: 36,241.7 km
Inclination: 12.9 °
Period: 1,457.1 minutes
Semi major axis: 42575 km
RCS: 3.1432 m2 (large)
Launch date: November 10, 1972
Source: Canada (CA)
Launch site: AIR FORCE EASTERN TEST RANGE (AFETR)
aabbcc
Your satellite tracking list
Your tracking list is empty




NASA's NSSDC Master Catalog

Two Line Element Set (TLE):
1 06278U 72090A   17327.03103299  .00000041  00000-0  00000+0 0  9992
2 06278  12.9319 324.7380 0008809 116.6594  65.2887  0.98825291 88112
Source of the keplerian elements: AFSPC